Time,TemperatureF,DewpointF,PressureIn,WindDirection,WindDirectionDegrees,WindSpeedMPH,WindSpeedGustMPH,Humidity,HourlyPrecipIn,Conditions,Clouds,dailyrainin,SoftwareType,DateUTC
2013-06-24 00:02:00,70.0,68.0,30.00,ESE,117,0.0,3.0,92,0.00,,,0.48,,2013-06-24 04:02:00,
2013-06-24 00:12:00,70.0,68.0,30.00,ESE,117,0.0,3.0,92,0.00,,,0.48,,2013-06-24 04:12:00,
2013-06-24 00:22:00,69.0,67.0,29.99,SE,146,0.0,3.0,93,0.00,,,0.48,,2013-06-24 04:22:00,
2013-06-24 00:33:00,69.0,67.0,29.99,SE,146,0.0,3.0,93,0.00,,,0.48,,2013-06-24 04:33:00,
2013-06-24 00:43:00,70.0,68.0,29.99,WSW,248,0.0,6.0,93,0.00,,,0.48,,2013-06-24 04:43:00,
2013-06-24 00:53:00,70.0,68.0,30.00,SW,214,1.0,5.0,92,0.00,,,0.48,,2013-06-24 04:53:00,
2013-06-24 01:02:00,70.0,67.0,29.99,WSW,246,0.0,5.0,91,0.00,,,0.48,,2013-06-24 05:02:00,
2013-06-24 01:12:00,70.0,67.0,29.99,WSW,246,0.0,5.0,91,0.00,,,0.48,,2013-06-24 05:12:00,
2013-06-24 01:22:00,70.0,67.0,30.01,WSW,240,0.0,4.0,91,0.00,,,0.48,,2013-06-24 05:22:00,
2013-06-24 01:36:00,70.0,67.0,30.00,WSW,250,1.0,7.0,91,0.00,,,0.48,,2013-06-24 05:36:00,
2013-06-24 01:46:00,70.0,67.0,30.00,WSW,250,1.0,7.0,91,0.00,,,0.48,,2013-06-24 05:46:00,
2013-06-24 02:08:00,70.0,67.0,30.00,WSW,240,0.0,3.0,91,0.00,,,0.48,,2013-06-24 06:08:00,
2013-06-24 02:14:00,70.0,67.0,30.00,WSW,240,0.0,3.0,91,0.00,,,0.48,,2013-06-24 06:14:00,
2013-06-24 02:24:00,70.0,67.0,30.00,WSW,255,1.0,4.0,91,0.00,,,0.48,,2013-06-24 06:24:00,
2013-06-24 02:45:00,70.0,67.0,30.01,SW,219,1.0,4.0,90,0.00,,,0.48,,2013-06-24 06:45:00,
2013-06-24 02:57:00,70.0,67.0,30.01,SW,234,0.0,3.0,90,0.00,,,0.48,,2013-06-24 06:57:00,
2013-06-24 03:05:00,70.0,67.0,30.01,SSW,207,0.0,3.0,90,0.00,,,0.48,,2013-06-24 07:05:00,
2013-06-24 03:30:00,70.0,67.0,30.01,SSW,212,0.0,6.0,91,0.00,,,0.48,,2013-06-24 07:30:00,
2013-06-24 03:37:00,70.0,67.0,30.01,SW,217,0.0,2.0,91,0.00,,,0.48,,2013-06-24 07:37:00,
2013-06-24 03:47:00,70.0,67.0,30.01,SW,217,0.0,2.0,91,0.00,,,0.48,,2013-06-24 07:47:00,
2013-06-24 03:58:00,70.0,68.0,30.01,SSW,210,0.0,3.0,92,0.00,,,0.48,,2013-06-24 07:58:00,
2013-06-24 04:04:00,69.0,67.0,30.01,SW,218,0.0,3.0,93,0.00,,,0.48,,2013-06-24 08:04:00,
2013-06-24 04:14:00,69.0,67.0,30.01,SW,218,0.0,3.0,93,0.00,,,0.48,,2013-06-24 08:14:00,
2013-06-24 04:35:00,69.0,67.0,30.01,SW,217,0.0,2.0,93,0.00,,,0.48,,2013-06-24 08:35:00,
2013-06-24 04:46:00,69.0,67.0,30.01,SW,217,0.0,2.0,93,0.00,,,0.48,,2013-06-24 08:46:00,
2013-06-24 04:55:00,69.0,67.0,30.00,SSE,159,0.0,2.0,93,0.00,,,0.48,,2013-06-24 08:55:00,
2013-06-24 05:06:00,69.0,67.0,30.01,SSE,161,0.0,1.0,93,0.00,,,0.48,,2013-06-24 09:06:00,
2013-06-24 05:15:00,69.0,67.0,30.01,SSE,161,0.0,1.0,93,0.00,,,0.48,,2013-06-24 09:15:00,
2013-06-24 05:26:00,69.0,67.0,30.00,SSE,160,0.0,1.0,93,0.00,,,0.48,,2013-06-24 09:26:00,
2013-06-24 05:47:00,68.0,66.0,30.00,SSE,160,0.0,1.0,94,0.00,,,0.48,,2013-06-24 09:47:00,
2013-06-24 06:00:00,68.0,66.0,30.00,SSE,160,0.0,1.0,94,0.00,,,0.48,,2013-06-24 10:00:00,
2013-06-24 06:14:00,68.0,66.0,30.00,SSE,160,0.0,1.0,94,0.00,,,0.48,,2013-06-24 10:14:00,
2013-06-24 06:24:00,68.0,67.0,30.01,SSE,160,0.0,1.0,95,0.00,,,0.48,,2013-06-24 10:24:00,
2013-06-24 06:37:00,68.0,67.0,30.01,SSE,160,0.0,1.0,95,0.00,,,0.48,,2013-06-24 10:37:00,
2013-06-24 06:50:00,68.0,67.0,30.01,SSE,160,0.0,1.0,95,0.00,,,0.48,,2013-06-24 10:50:00,
2013-06-24 06:58:00,69.0,67.0,30.01,SSW,207,1.0,4.0,94,0.00,,,0.48,,2013-06-24 10:58:00,
2013-06-24 07:15:00,69.0,67.0,30.01,SSW,194,1.0,5.0,94,0.00,,,0.48,,2013-06-24 11:15:00,
2013-06-24 07:29:00,70.0,68.0,30.01,SSW,211,1.0,7.0,92,0.00,,,0.48,,2013-06-24 11:29:00,
2013-06-24 07:34:00,70.0,67.0,30.01,SSW,207,2.0,8.0,91,0.00,,,0.48,,2013-06-24 11:34:00,
2013-06-24 07:47:00,70.0,67.0,30.01,SSW,207,2.0,8.0,91,0.00,,,0.48,,2013-06-24 11:47:00,
2013-06-24 07:58:00,71.0,68.0,30.01,SSW,212,3.0,7.0,90,0.00,,,0.48,,2013-06-24 11:58:00,
2013-06-24 08:05:00,71.0,68.0,30.01,SSW,205,0.0,5.0,89,0.00,,,0.48,,2013-06-24 12:05:00,
2013-06-24 08:16:00,71.0,68.0,30.01,SSW,205,0.0,5.0,89,0.00,,,0.48,,2013-06-24 12:16:00,
2013-06-24 08:24:00,72.0,69.0,30.01,SW,221,2.0,6.0,89,0.00,,,0.48,,2013-06-24 12:24:00,
2013-06-24 08:36:00,73.0,69.0,30.02,SSW,194,1.0,5.0,88,0.00,,,0.48,,2013-06-24 12:36:00,
2013-06-24 08:48:00,73.0,69.0,30.02,SSW,194,1.0,5.0,88,0.00,,,0.48,,2013-06-24 12:48:00,
2013-06-24 08:55:00,74.0,70.0,30.03,West,263,2.0,7.0,86,0.00,,,0.48,,2013-06-24 12:55:00,
2013-06-24 09:06:00,74.0,70.0,30.03,West,263,2.0,7.0,86,0.00,,,0.48,,2013-06-24 13:06:00,
2013-06-24 09:36:00,75.0,69.0,30.04,SSW,209,3.0,9.0,82,0.00,,,0.48,,2013-06-24 13:36:00,
2013-06-24 10:03:00,77.0,70.0,30.03,SSW,207,5.0,10.0,78,0.00,,,0.48,,2013-06-24 14:03:00,
2013-06-24 10:37:00,78.0,70.0,30.03,SW,224,4.0,8.0,77,0.00,,,0.48,,2013-06-24 14:37:00,
2013-06-24 10:45:00,78.0,71.0,30.03,SW,236,3.0,10.0,78,0.00,,,0.48,,2013-06-24 14:45:00,
2013-06-24 10:56:00,78.0,71.0,30.03,SW,236,3.0,10.0,78,0.00,,,0.48,,2013-06-24 14:56:00,
2013-06-24 11:05:00,78.0,71.0,30.03,SSW,201,3.0,9.0,79,0.00,,,0.48,,2013-06-24 15:05:00,
2013-06-24 11:36:00,79.0,72.0,30.04,West,280,2.0,9.0,78,0.00,,,0.48,,2013-06-24 15:36:00,
2013-06-24 11:46:00,79.0,72.0,30.04,SSW,213,3.0,11.0,78,0.00,,,0.48,,2013-06-24 15:46:00,
2013-06-24 11:54:00,79.0,72.0,30.04,SSW,213,3.0,11.0,78,0.00,,,0.48,,2013-06-24 15:54:00,
2013-06-24 12:04:00,80.0,72.0,30.05,South,185,2.0,9.0,76,0.00,,,0.48,,2013-06-24 16:04:00,
2013-06-24 12:15:00,80.0,72.0,30.04,WNW,292,3.0,10.0,77,0.00,,,0.48,,2013-06-24 16:15:00,
2013-06-24 12:36:00,79.0,70.0,30.04,West,280,3.0,10.0,74,0.00,,,0.48,,2013-06-24 16:36:00,
2013-06-24 12:44:00,80.0,70.0,30.04,West,259,4.0,9.0,72,0.00,,,0.48,,2013-06-24 16:44:00,
2013-06-24 13:06:00,81.0,70.0,30.03,SW,229,3.0,8.0,70,0.00,,,0.48,,2013-06-24 17:06:00,
2013-06-24 13:15:00,81.0,69.0,30.03,WNW,297,2.0,14.0,68,0.00,,,0.48,,2013-06-24 17:15:00,
2013-06-24 13:35:00,82.0,70.0,30.03,WNW,291,7.0,11.0,68,0.00,,,0.48,,2013-06-24 17:35:00,
2013-06-24 13:47:00,82.0,70.0,30.02,WNW,297,3.0,7.0,67,0.00,,,0.48,,2013-06-24 17:47:00,
2013-06-24 14:02:00,83.0,70.0,30.00,WNW,302,2.0,9.0,65,0.00,,,0.48,,2013-06-24 18:02:00,
2013-06-24 14:36:00,84.0,70.0,29.99,WNW,290,5.0,9.0,62,0.00,,,0.48,,2013-06-24 18:36:00,
2013-06-24 14:46:00,84.0,70.0,29.98,WSW,247,3.0,10.0,62,0.00,,,0.48,,2013-06-24 18:46:00,
2013-06-24 15:06:00,85.0,69.0,29.97,WNW,298,2.0,9.0,58,0.00,,,0.48,,2013-06-24 19:06:00,
2013-06-24 15:13:00,85.0,70.0,29.96,ESE,119,0.0,6.0,60,0.00,,,0.48,,2013-06-24 19:13:00,
2013-06-24 15:37:00,86.0,68.0,29.95,SSE,167,1.0,4.0,56,0.00,,,0.48,,2013-06-24 19:37:00,
2013-06-24 16:05:00,87.0,69.0,29.95,West,274,3.0,7.0,56,0.00,,,0.48,,2013-06-24 20:05:00,
2013-06-24 16:24:00,88.0,69.0,29.95,SW,215,2.0,7.0,54,0.00,,,0.48,,2013-06-24 20:24:00,
2013-06-24 16:34:00,86.0,70.0,29.96,SW,214,2.0,8.0,59,0.00,,,0.48,,2013-06-24 20:34:00,
2013-06-24 16:45:00,86.0,70.0,29.95,South,182,5.0,8.0,59,0.00,,,0.48,,2013-06-24 20:45:00,
2013-06-24 17:04:00,86.0,70.0,29.96,WSW,244,3.0,7.0,59,0.00,,,0.48,,2013-06-24 21:04:00,
2013-06-24 17:25:00,86.0,71.0,29.94,SW,221,4.0,8.0,61,0.00,,,0.48,,2013-06-24 21:25:00,
2013-06-24 17:46:00,86.0,69.0,29.93,SSW,205,4.0,8.0,58,0.00,,,0.48,,2013-06-24 21:46:00,
2013-06-24 17:53:00,86.0,69.0,29.93,SSW,205,4.0,8.0,58,0.00,,,0.48,,2013-06-24 21:53:00,
2013-06-24 18:05:00,86.0,69.0,29.92,WSW,250,5.0,10.0,57,0.00,,,0.48,,2013-06-24 22:05:00,
2013-06-24 18:15:00,85.0,69.0,29.92,South,180,3.0,8.0,58,0.00,,,0.48,,2013-06-24 22:15:00,
2013-06-24 18:23:00,85.0,69.0,29.92,South,180,3.0,8.0,58,0.00,,,0.48,,2013-06-24 22:23:00,
2013-06-24 18:36:00,85.0,70.0,29.92,SSW,200,3.0,7.0,60,0.00,,,0.48,,2013-06-24 22:36:00,
2013-06-24 18:48:00,86.0,70.0,29.92,SSW,211,2.0,7.0,59,0.00,,,0.48,,2013-06-24 22:48:00,
2013-06-24 18:55:00,85.0,68.0,29.92,SW,223,3.0,8.0,56,0.00,,,0.48,,2013-06-24 22:55:00,
2013-06-24 19:14:00,85.0,69.0,29.93,WSW,248,3.0,8.0,58,0.00,,,0.48,,2013-06-24 23:14:00,
2013-06-24 19:27:00,85.0,69.0,29.93,SW,228,5.0,10.0,59,0.00,,,0.48,,2013-06-24 23:27:00,
2013-06-24 19:45:00,84.0,69.0,29.93,SSW,202,3.0,9.0,60,0.00,,,0.48,,2013-06-24 23:45:00,
2013-06-24 19:53:00,84.0,69.0,29.93,WSW,242,1.0,7.0,61,0.00,,,0.48,,2013-06-24 23:53:00,
2013-06-24 20:06:00,84.0,69.0,29.93,WSW,242,1.0,7.0,61,0.00,,,0.48,,2013-06-25 00:06:00,
2013-06-24 20:13:00,84.0,70.0,29.93,SSW,198,2.0,7.0,62,0.00,,,0.48,,2013-06-25 00:13:00,
2013-06-24 20:24:00,84.0,70.0,29.92,SSW,206,2.0,8.0,63,0.00,,,0.48,,2013-06-25 00:24:00,
2013-06-24 20:34:00,84.0,70.0,29.92,SSW,206,2.0,8.0,63,0.00,,,0.48,,2013-06-25 00:34:00,
2013-06-24 20:47:00,83.0,70.0,29.92,SW,232,3.0,7.0,64,0.00,,,0.48,,2013-06-25 00:47:00,
2013-06-24 20:54:00,83.0,70.0,29.91,SSW,200,1.0,6.0,64,0.00,,,0.02,,2013-06-25 00:54:00,
2013-06-24 21:04:00,83.0,70.0,29.91,SSW,200,1.0,6.0,64,0.00,,,0.02,,2013-06-25 01:04:00,
2013-06-24 21:37:00,81.0,69.0,29.91,SW,215,1.0,4.0,66,0.00,,,0.02,,2013-06-25 01:37:00,
2013-06-24 21:44:00,81.0,69.0,29.91,SW,215,1.0,4.0,66,0.00,,,0.02,,2013-06-25 01:44:00,
2013-06-24 21:55:00,81.0,69.0,29.92,SW,234,0.0,4.0,67,0.00,,,0.02,,2013-06-25 01:55:00,
2013-06-24 22:05:00,80.0,69.0,29.92,WSW,246,0.0,3.0,69,0.00,,,0.00,,2013-06-25 02:05:00,
2013-06-24 22:16:00,80.0,69.0,29.92,WSW,246,0.0,3.0,69,0.00,,,0.00,,2013-06-25 02:16:00,
2013-06-24 22:25:00,80.0,69.0,29.92,SSW,208,0.0,6.0,70,0.00,,,0.00,,2013-06-25 02:25:00,
2013-06-24 23:33:00,69.0,65.0,29.96,WNW,298,3.0,8.0,88,0.07,,,0.07,,2013-06-25 03:33:00,
2013-06-24 23:52:00,69.0,65.0,29.94,SW,232,2.0,8.0,86,0.06,,,0.07,,2013-06-25 03:52:00,
2013-06-24 23:59:00,69.0,65.0,29.91,West,261,3.0,10.0,88,0.01,,,0.07,,2013-06-25 03:59:00,